Tracking 19164 objects as of 21-May-2018
HD Live streaming from Space Station
objects crossing your sky now

FENGYUN 1C DEB

Track FENGYUN 1C DEB now!
10-day predictions


NORAD ID: 30104
Int'l Code: 1999-025RH
Perigee: 778.2 km
Apogee: 891.8 km
Inclination: 98.6 °
Period: 101.5 minutes
Semi major axis: 7206 km
RCS: 0.0504 m2 (small)
Launch date: May 10, 1999
Source: People's Republic of China (PRC)
Launch site: Taiyaun Space Center, China (TSC)

Note: This is SATELLITE DEBRIS
aabbcc
Your satellite tracking list
Your tracking list is empty




NASA's NSSDC Master Catalog

Two Line Element Set (TLE):
1 30104U 99025RH  18140.30872535 +.00000277 +00000-0 +14787-3 0  9996
2 30104 098.6197 044.6985 0078853 212.3320 266.5492 14.19254339586453
Source of the keplerian elements: AFSPC